OBJECT_NAME,OBJECT_ID,EPOCH,MEAN_MOTION,ECCENTRICITY,INCLINATION,RA_OF_ASC_NODE,ARG_OF_PERICENTER,MEAN_ANOMALY,EPHEMERIS_TYPE,CLASSIFICATION_TYPE,NORAD_CAT_ID,ELEMENT_SET_NO,REV_AT_EPOCH,BSTAR,MEAN_MOTION_DOT,MEAN_MOTION_DDOT COSMOS 2433 (720),2007-052A,2026-09-12T04:44:32.349696,2.13104026,.00053973,65.5225,313.0027,223.8548,136.1798,0,U,32275,999,14691,0,-.45E-6,0 COSMOS 2432 (719),2007-052B,2026-09-12T06:26:39.689088,2.13103011,.00086266,65.5383,313.1296,307.5173,50.4881,0,U,32276,999,14693,0,-.46E-6,0 COSMOS 2434 (721),2007-065A,2026-09-09T05:20:25.031616,2.13101148,.00014809,64.3196,189.0826,28.9610,98.0835,0,U,32393,999,14556,0,-.2E-6,0 COSMOS 2436 (723),2007-065C,2026-09-12T04:29:18.377664,2.13099789,.00174364,64.3280,189.0560,358.7557,14.4716,0,U,32395,999,14558,0,.4E-7,0 COSMOS 2456 (730),2009-070A,2026-09-06T17:38:08.644992,2.13103422,.00018509,65.0634,68.1929,353.7024,183.4854,0,U,36111,999,13016,0,.37E-6,0 COSMOS 2457 (733),2009-070B,2026-09-11T23:02:52.074816,2.13100816,.0005855,65.0524,67.8570,130.4391,222.2066,0,U,36112,999,13027,0,-.3E-7,0 COSMOS 2460 (732),2010-007C,2026-09-08T05:02:36.878784,2.13101570,.0002316,65.3677,311.6550,209.5113,148.1159,0,U,36402,999,12849,0,-.27E-6,0 COSMOS 2476 (744),2011-064A,2026-09-11T02:21:04.834368,2.13103670,.0022536,65.3238,69.9735,230.7215,322.0571,0,U,37867,999,11559,0,.1E-6,0 COSMOS 2477 (745),2011-064B,2026-09-12T06:10:18.757056,2.13102570,.0019299,65.3304,70.0147,230.8178,311.3238,0,U,37868,999,11561,0,-.1E-7,0 COSMOS 2475 (743),2011-064C,2026-09-12T05:24:03.074976,2.13101319,.00244983,65.3375,70.0384,246.3694,225.8740,0,U,37869,999,11562,0,0,0 COSMOS 2485 (747),2013-019A,2026-09-07T23:15:10.086336,2.13102930,.00229693,65.4699,70.8288,226.3838,133.4785,0,U,39155,999,10404,0,.39E-6,0 COSMOS 2492 (754),2014-012A,2026-09-10T17:50:25.096992,2.13103162,.00115371,65.2426,311.0251,307.9222,52.0528,0,U,39620,999,9706,0,-.34E-6,0 COSMOS 2500 (755),2014-032A,2026-09-08T02:18:57.301920,2.13105882,.00094804,65.1795,310.8561,202.9458,157.0874,0,U,40001,999,9522,0,-.26E-6,0 COSMOS 2501 (702K),2014-075A,2026-09-11T15:27:54.239328,2.13101274,.00221915,63.6173,187.3806,210.5501,149.3143,0,U,40315,999,9169,0,-.2E-7,0 COSMOS 2514 (751),2016-008A,2026-09-11T15:05:51.976320,2.13102586,.00137081,64.9655,310.0358,209.9478,150.0521,0,U,41330,999,8246,0,-.38E-6,0 COSMOS 2522 (752),2017-055A,2026-09-10T23:56:04.933248,2.13101798,.00095759,64.0800,188.9651,237.0189,122.8770,0,U,42939,999,6980,0,-.8E-7,0 COSMOS 2527 (756),2018-053A,2026-09-11T21:33:15.263712,2.13101861,.00070004,65.6302,71.0175,213.4884,146.5036,0,U,43508,999,6412,0,.5E-7,0 COSMOS 2529 (757),2018-086A,2026-09-11T01:19:57.673632,2.13101834,.00106608,64.2963,189.6966,254.9299,104.9393,0,U,43687,999,6111,0,-.8E-7,0 COSMOS 2534 (758),2019-030A,2026-09-08T07:03:58.896288,2.13102149,.0012038,64.3699,189.8198,275.8196,260.4578,0,U,44299,999,5669,0,-.19E-6,0 COSMOS 2544 (759),2019-088A,2026-09-10T21:41:39.937344,2.13102659,.0011883,65.6173,70.8727,245.7348,114.1821,0,U,44850,999,5254,0,.15E-6,0 COSMOS 2545 (760),2020-018A,2026-09-11T02:22:22.278144,2.13102362,.0011763,64.2987,309.3957,235.3288,124.6388,0,U,45358,999,5049,0,-.36E-6,0 COSMOS 2547 (705K),2020-075A,2026-09-11T18:12:09.302400,2.13099687,.00085533,64.6008,189.5880,236.4821,123.4270,0,U,46805,999,4575,0,0,0 COSMOS 2557 (706K),2022-075A,2026-09-11T22:07:46.771968,2.13102028,.00125206,64.2422,311.4262,269.0241,90.9097,0,U,52984,999,3256,0,-.44E-6,0 COSMOS 2559 (707K),2022-130A,2026-09-11T06:32:36.649824,2.13101663,.00135086,64.2155,311.5293,187.9833,172.0726,0,U,54031,999,3052,0,-.4E-6,0 COSMOS 2564 (761),2022-161A,2026-09-12T01:17:54.509568,2.13102030,.00110016,64.7428,189.8304,219.0104,140.9023,0,U,54377,999,2948,0,.3E-7,0 COSMOS 2569 (703K),2023-114A,2026-09-12T01:35:18.827232,2.13102544,.00085698,65.3568,69.6932,289.2479,70.6925,0,U,57517,999,2411,0,0,0 COSMOS 2584 (704K),2025-042A,2026-09-11T22:52:06.524256,2.13103480,.0006381,65.1394,69.8549,202.7942,157.2117,0,U,63130,999,1189,0,.1E-7,0 COSMOS 2596 (708K),2025-206B,2026-09-12T06:26:17.225088,2.13100809,.00123316,64.5787,311.9496,301.9191,55.4949,0,U,65590,999,776,0,-.46E-6,0 COSMOS 2619,2026-194A,2026-09-03T01:12:20.963232,2.12709114,.00046554,64.7592,312.0581,49.6429,310.4698,0,U,100460,999,22,0,-.32E-6,0